ROT647M LROP-LRCL

Flight info

Callsign ROT647M
Flight time 0h 34m
Altitude 28000
Route BUKEL1K/08L BUKEL DCT AKUPO
Aircraft A320/M-SDE3FGHIRWY/LB1

Departure

Time 2026-05-06 17:17
Airport Bucharest Henri Coandă International Airport (LROP)

Arrival

Time 2026-05-06 17:52
Airport Avram Iancu Cluj International Airport (LRCL)
Time Latitude Longitude Altitude Speed Heading
2026-05-06 16:59 44.57144 26.08109 317 ft 0 kts 175°
2026-05-06 17:09 44.57151 26.08108 316 ft 4 kts 174°
2026-05-06 17:09 44.57177 26.08101 315 ft 4 kts 158°
2026-05-06 17:10 44.57198 26.08083 317 ft 4 kts 121°
2026-05-06 17:10 44.57203 26.08061 317 ft 1 kts 83°
2026-05-06 17:10 44.57203 26.08057 317 ft 1 kts 83°
2026-05-06 17:13 44.57205 26.08079 317 ft 7 kts 83°
2026-05-06 17:13 44.57212 26.08171 317 ft 11 kts 84°
2026-05-06 17:14 44.57221 26.08290 317 ft 13 kts 83°
2026-05-06 17:14 44.57231 26.08430 317 ft 15 kts 85°
2026-05-06 17:14 44.57290 26.08494 318 ft 11 kts 355°
2026-05-06 17:14 44.57353 26.08485 319 ft 8 kts 354°
2026-05-06 17:15 44.57403 26.08478 320 ft 7 kts 354°
2026-05-06 17:15 44.57474 26.08467 323 ft 14 kts 353°
2026-05-06 17:15 44.57585 26.08450 326 ft 17 kts 353°
2026-05-06 17:15 44.57668 26.08482 325 ft 14 kts 92°
2026-05-06 17:16 44.57672 26.08535 327 ft 0 kts 83°
2026-05-06 17:16 44.57677 26.08594 328 ft 28 kts 83°
2026-05-06 17:16 44.57725 26.09244 316 ft 102 kts 84°
2026-05-06 17:17 44.57817 26.10502 322 ft 156 kts 85°
2026-05-06 17:17 44.57926 26.11944 769 ft 163 kts 85°
2026-05-06 17:17 44.58056 26.13530 1488 ft 163 kts 86°
2026-05-06 17:17 44.58185 26.15112 2196 ft 162 kts 87°
2026-05-06 17:18 44.58304 26.16723 2566 ft 176 kts 87°
2026-05-06 17:18 44.58434 26.18548 2880 ft 200 kts 87°
2026-05-06 17:18 44.58581 26.20608 3207 ft 225 kts 86°
2026-05-06 17:18 44.58747 26.22912 3639 ft 249 kts 86°
2026-05-06 17:19 44.58930 26.25422 4265 ft 265 kts 84°
2026-05-06 17:19 44.59121 26.28006 5163 ft 270 kts 83°
2026-05-06 17:19 44.59317 26.30650 6105 ft 273 kts 83°
2026-05-06 17:19 44.59561 26.33308 6996 ft 276 kts 74°
2026-05-06 17:20 44.60380 26.35734 7857 ft 277 kts 50°
2026-05-06 17:20 44.61839 26.37468 8726 ft 278 kts 26°
2026-05-06 17:20 44.63688 26.38194 9640 ft 279 kts
2026-05-06 17:20 44.65609 26.37800 10379 ft 287 kts 341°
2026-05-06 17:21 44.67388 26.36338 10645 ft 313 kts 324°
2026-05-06 17:21 44.68947 26.34676 10991 ft 327 kts 323°
2026-05-06 17:21 44.70775 26.32691 11646 ft 335 kts 323°
2026-05-06 17:21 44.72626 26.30676 12380 ft 340 kts 323°
2026-05-06 17:22 44.74516 26.28626 13120 ft 345 kts 323°
2026-05-06 17:22 44.76454 26.26531 13852 ft 349 kts 323°
2026-05-06 17:22 44.78373 26.24464 14506 ft 354 kts 323°
2026-05-06 17:22 44.80362 26.22326 15152 ft 358 kts 323°
2026-05-06 17:23 44.82327 26.20210 15810 ft 361 kts 323°
2026-05-06 17:23 44.84330 26.18052 16435 ft 366 kts 323°
2026-05-06 17:23 44.86366 26.15855 17076 ft 369 kts 323°
2026-05-06 17:23 44.88413 26.13645 17760 ft 372 kts 323°
2026-05-06 17:24 44.90472 26.11422 18392 ft 375 kts 323°
2026-05-06 17:24 44.92548 26.09175 18933 ft 379 kts 323°
2026-05-06 17:24 44.94643 26.06903 19550 ft 381 kts 323°
2026-05-06 17:24 44.96751 26.04616 20148 ft 383 kts 323°
2026-05-06 17:25 44.98869 26.02316 20734 ft 386 kts 323°
2026-05-06 17:25 45.01007 25.99995 21323 ft 389 kts 323°
2026-05-06 17:25 45.03154 25.97665 21932 ft 390 kts 323°
2026-05-06 17:25 45.05319 25.95313 22519 ft 393 kts 323°
2026-05-06 17:26 45.07487 25.92952 23094 ft 395 kts 323°
2026-05-06 17:26 45.09666 25.90576 23639 ft 397 kts 323°
2026-05-06 17:26 45.11857 25.88184 24114 ft 398 kts 323°
2026-05-06 17:26 45.14052 25.85783 24567 ft 399 kts 323°
2026-05-06 17:27 45.16256 25.83369 25025 ft 401 kts 323°
2026-05-06 17:27 45.18467 25.80947 25446 ft 403 kts 323°
2026-05-06 17:27 45.20684 25.78521 25850 ft 404 kts 323°
2026-05-06 17:27 45.22920 25.76072 26280 ft 406 kts 323°
2026-05-06 17:28 45.25161 25.73620 26698 ft 407 kts 323°
2026-05-06 17:28 45.27407 25.71158 27096 ft 409 kts 323°
2026-05-06 17:28 45.29665 25.68679 27487 ft 410 kts 323°
2026-05-06 17:28 45.31927 25.66193 27884 ft 412 kts 322°
2026-05-06 17:29 45.33429 25.64537 27998 ft 412 kts 323°
2026-05-06 17:29 45.37884 25.59619 28026 ft 398 kts 322°
2026-05-06 17:30 45.42220 25.54821 28033 ft 396 kts 322°
2026-05-06 17:30 45.46571 25.50010 28032 ft 396 kts 322°
2026-05-06 17:31 45.50912 25.45190 28026 ft 396 kts 322°
2026-05-06 17:31 45.55252 25.40355 28025 ft 396 kts 322°
2026-05-06 17:32 45.59622 25.35493 27999 ft 396 kts 322°
2026-05-06 17:32 45.61768 25.33101 27997 ft 396 kts 322°
2026-05-06 17:32 45.63969 25.30648 27987 ft 396 kts 322°
2026-05-06 17:32 45.66113 25.28256 27983 ft 396 kts 322°
2026-05-06 17:33 45.68311 25.25797 27984 ft 396 kts 321°
2026-05-06 17:33 45.70483 25.23361 27968 ft 397 kts 321°
2026-05-06 17:33 45.72652 25.20923 27969 ft 397 kts 321°
2026-05-06 17:33 45.74820 25.18484 27937 ft 397 kts 321°
2026-05-06 17:34 45.76994 25.16038 27684 ft 397 kts 321°
2026-05-06 17:34 45.79170 25.13589 27410 ft 397 kts 321°
2026-05-06 17:34 45.81346 25.11141 27151 ft 397 kts 321°
2026-05-06 17:34 45.83521 25.08698 26889 ft 397 kts 321°
2026-05-06 17:35 45.85689 25.06253 26635 ft 396 kts 321°
2026-05-06 17:35 45.87849 25.03809 26378 ft 395 kts 321°
2026-05-06 17:35 45.90011 25.01360 26127 ft 395 kts 321°
2026-05-06 17:36 45.94290 24.96514 25358 ft 388 kts 321°
2026-05-06 17:36 45.96400 24.94127 24850 ft 385 kts 321°
2026-05-06 17:36 45.98496 24.91752 24354 ft 383 kts 321°
2026-05-06 17:36 46.00596 24.89368 23885 ft 394 kts 321°
2026-05-06 17:37 46.02819 24.86833 23345 ft 417 kts 320°
2026-05-06 17:37 46.05079 24.84251 22817 ft 421 kts 320°
2026-05-06 17:37 46.07377 24.81629 22321 ft 421 kts 320°
2026-05-06 17:37 46.09670 24.79015 21809 ft 420 kts 320°
2026-05-06 17:38 46.11982 24.76377 21292 ft 418 kts 321°
2026-05-06 17:38 46.14253 24.73778 20776 ft 415 kts 320°
2026-05-06 17:38 46.16506 24.71199 20252 ft 412 kts 320°
2026-05-06 17:38 46.18720 24.68665 19790 ft 397 kts 321°
2026-05-06 17:39 46.20844 24.66233 19200 ft 382 kts 321°
2026-05-06 17:39 46.22886 24.63894 18716 ft 370 kts 320°
2026-05-06 17:39 46.24892 24.61590 18219 ft 369 kts 320°
2026-05-06 17:39 46.26902 24.59277 17686 ft 368 kts 320°
2026-05-06 17:40 46.28894 24.56984 17195 ft 365 kts 320°
2026-05-06 17:40 46.30870 24.54706 16715 ft 362 kts 320°
2026-05-06 17:40 46.32836 24.52434 16240 ft 360 kts 320°
2026-05-06 17:40 46.34791 24.50172 15751 ft 359 kts 320°
2026-05-06 17:41 46.36712 24.47946 15294 ft 357 kts 320°
2026-05-06 17:41 46.38649 24.45703 14825 ft 356 kts 320°
2026-05-06 17:41 46.40580 24.43466 14360 ft 355 kts 320°
2026-05-06 17:41 46.42507 24.41231 13887 ft 354 kts 320°
2026-05-06 17:42 46.44448 24.38978 13362 ft 353 kts 320°
2026-05-06 17:42 46.46337 24.36783 12840 ft 352 kts 320°
2026-05-06 17:42 46.48246 24.34577 12327 ft 350 kts 320°
2026-05-06 17:42 46.50146 24.32389 11826 ft 348 kts 320°
2026-05-06 17:43 46.52037 24.30210 11342 ft 345 kts 320°
2026-05-06 17:43 46.53935 24.28016 10831 ft 343 kts 320°
2026-05-06 17:43 46.55768 24.25891 10389 ft 340 kts 320°
2026-05-06 17:43 46.57585 24.23790 10256 ft 327 kts 320°
2026-05-06 17:44 46.59331 24.21775 10133 ft 314 kts 320°
2026-05-06 17:44 46.61010 24.19830 10009 ft 303 kts 320°
2026-05-06 17:44 46.62642 24.17934 9721 ft 299 kts 320°
2026-05-06 17:44 46.64269 24.16039 9290 ft 299 kts 320°
2026-05-06 17:45 46.65897 24.14136 8899 ft 298 kts 320°
2026-05-06 17:45 46.67494 24.12268 8532 ft 292 kts 320°
2026-05-06 17:45 46.69075 24.10420 7814 ft 291 kts 320°
2026-05-06 17:45 46.70651 24.08579 7136 ft 289 kts 320°
2026-05-06 17:46 46.72215 24.06754 6471 ft 286 kts 319°
2026-05-06 17:46 46.73765 24.04947 5769 ft 284 kts 319°
2026-05-06 17:46 46.75301 24.03152 5053 ft 281 kts 319°
2026-05-06 17:46 46.76824 24.01370 4385 ft 282 kts 319°
2026-05-06 17:47 46.78343 23.99591 3980 ft 278 kts 319°
2026-05-06 17:47 46.79808 23.97875 3859 ft 263 kts 319°
2026-05-06 17:47 46.81196 23.96248 3759 ft 248 kts 319°
2026-05-06 17:47 46.82513 23.94686 3650 ft 241 kts 315°
2026-05-06 17:48 46.83435 23.92748 3568 ft 227 kts 287°
2026-05-06 17:48 46.83630 23.90558 3454 ft 213 kts 260°
2026-05-06 17:48 46.83247 23.88523 3321 ft 204 kts 252°
2026-05-06 17:48 46.82814 23.86591 3211 ft 197 kts 253°
2026-05-06 17:49 46.82396 23.84718 3111 ft 188 kts 253°
2026-05-06 17:49 46.81998 23.82941 2869 ft 175 kts 253°
2026-05-06 17:49 46.81640 23.81339 2674 ft 160 kts 255°
2026-05-06 17:49 46.81307 23.79852 2472 ft 147 kts 255°
2026-05-06 17:50 46.80999 23.78476 2296 ft 142 kts 255°
2026-05-06 17:50 46.80693 23.77106 2106 ft 141 kts 253°
2026-05-06 17:50 46.80389 23.75749 1921 ft 141 kts 255°
2026-05-06 17:50 46.80080 23.74370 1739 ft 141 kts 255°
2026-05-06 17:51 46.79782 23.73034 1561 ft 141 kts 254°
2026-05-06 17:51 46.79482 23.71697 1381 ft 140 kts 255°
2026-05-06 17:51 46.79176 23.70349 1184 ft 139 kts 256°
2026-05-06 17:51 46.78884 23.69018 1045 ft 131 kts 252°
2026-05-06 17:52 46.78650 23.67985 1043 ft 84 kts 251°
2026-05-06 17:52 46.78538 23.67488 1043 ft 37 kts 252°
2026-05-06 17:52 46.78487 23.67261 1043 ft 13 kts 251°
2026-05-06 17:52 46.78423 23.67182 1042 ft 13 kts 175°
2026-05-06 17:53 46.78360 23.67249 1043 ft 11 kts 132°
2026-05-06 17:53 46.78339 23.67342 1043 ft 9 kts 87°
2026-05-06 17:53 46.78351 23.67423 1043 ft 8 kts 78°
2026-05-06 17:53 46.78361 23.67493 1043 ft 7 kts 77°
2026-05-06 17:54 46.78382 23.67602 1043 ft 18 kts 72°
2026-05-06 17:54 46.78429 23.67807 1043 ft 23 kts 71°
2026-05-06 17:54 46.78480 23.68036 1043 ft 25 kts 72°
2026-05-06 17:54 46.78536 23.68282 1043 ft 26 kts 72°
2026-05-06 17:55 46.78595 23.68541 1043 ft 27 kts 71°
2026-05-06 17:55 46.78645 23.68763 1043 ft 15 kts 70°
2026-05-06 17:55 46.78614 23.68869 1043 ft 12 kts 159°
2026-05-06 17:55 46.78540 23.68904 1043 ft 11 kts 162°
2026-05-06 17:56 46.78473 23.68936 1043 ft 10 kts 161°
2026-05-06 17:56 46.78425 23.68921 1043 ft 7 kts 259°
2026-05-06 17:56 46.78413 23.68881 1043 ft 3 kts 207°
2026-05-06 17:56 46.78378 23.68880 1043 ft 5 kts 174°
2026-05-06 17:57 46.78367 23.68882 1043 ft 1 kts 175°
2026-05-06 17:57 46.78366 23.68882 1043 ft 0 kts 175°
2026-05-06 17:57 46.78364 23.68882 1043 ft 0 kts 175°